Location: Brunnen
(48.6541°N, 10.9920°E)
Time: 07:07:03
(UTC+00:00)

SL-4 R/B - Pass Details

Date: 01 June 2020
Orbit: 428 x 666 km, 51.6° (Epoch: 04 July)

Event Time Altitude Azimuth Distance (km) Brightness Sun altitude
Rises 20:41:27 0° 203° (SSW) 2,925 5.4 -11.4°
Reaches altitude 10° 20:44:05 10° 190° (S) 2,046 4.5 -11.6°
Maximum altitude 20:47:53 24° 136° (SE) 1,352 3.4 -12.0°
Drops below altitude 10° 20:51:46 10° 83° (E) 2,090 4.7 -12.3°
Sets 20:54:28 0° 70° (ENE) 3,004 5.6 -12.6°
